Theta_e
334 338 342 347 351 352 351 353 352 352 352 352 353 353 352 351 350 350 349 349 348 349 350 349 349 349 349 348 349 348 348 349 348 348 348 348 348 348 349 350 350 351 351 351 350 351 350 349 348 348 347 346 345 345 346 347 348 349 350 350 351 350 351 351 351 349 349 350 350 351 350 350 352 351 353 353 353 353 351 351 351 349 348 350 352
334 337 343 346 350 351 352 352 352 352 352 352 352 352 352 351 350 349 349 348 348 349 349 350 349 349 349 349 348 347 348 348 348 348 348 349 348 348 348 349 350 350 350 350 350 350 349 349 348 348 347 347 346 346 346 347 346 348 348 349 349 349 349 350 350 349 348 348 348 349 349 350 350 350 352 352 352 352 351 351 350 347 345 350 352
336 337 343 345 348 350 351 352 352 352 351 352 352 352 351 351 350 349 348 348 349 349 349 350 349 349 349 348 347 347 347 348 348 348 349 349 348 348 349 349 349 350 349 350 349 349 348 347 346 346 345 344 344 345 345 345 346 346 347 347 348 348 348 348 348 348 347 346 346 346 345 347 349 350 350 351 351 352 350 350 350 349 347 352 351
335 338 343 345 346 348 351 351 352 352 351 351 351 351 351 350 349 349 347 349 349 350 349 349 349 349 348 349 349 349 348 349 349 349 349 349 348 348 348 349 349 349 349 349 349 349 347 346 346 345 343 343 342 343 343 343 343 344 345 345 345 346 346 346 346 345 345 345 344 342 343 338 342 349 350 350 350 351 350 350 350 350 351 350 350
336 339 343 345 345 346 350 351 352 352 352 351 351 351 351 350 349 348 347 349 350 349 349 349 349 349 349 349 349 349 348 348 348 348 348 348 348 348 348 349 349 349 349 348 349 347 346 345 344 343 342 341 341 340 340 341 341 342 342 343 343 344 344 343 343 342 342 343 341 339 337 338 338 348 348 347 347 348 349 349 349 350 350 350 350
336 339 342 344 344 345 348 351 352 352 352 351 351 351 351 350 349 348 349 349 349 349 349 349 349 349 349 349 349 349 348 348 348 348 348 348 348 348 348 348 349 349 348 348 347 347 345 344 343 342 340 339 338 338 337 338 338 339 339 340 340 341 341 341 340 339 338 339 338 335 336 337 339 343 347 347 346 346 347 346 348 349 349 349 350
337 339 342 343 344 344 345 350 352 352 351 351 352 351 351 349 349 349 349 349 348 349 349 349 349 349 349 349 349 348 348 349 348 348 348 348 348 348 348 347 348 348 347 347 346 345 344 343 342 340 339 337 337 337 337 336 335 335 335 337 338 338 340 339 338 339 339 334 328 332 337 338 338 340 348 347 347 346 345 345 348 348 349 349 349
337 339 341 342 343 343 345 350 352 352 351 351 352 351 351 349 350 350 349 348 348 349 349 349 349 348 349 349 349 348 348 349 348 348 348 348 347 348 347 347 347 347 346 346 345 343 342 341 341 340 337 335 335 335 335 335 334 333 333 334 336 337 338 337 338 338 336 330 336 338 338 336 337 339 347 348 346 346 348 347 347 347 347 347 346
336 339 341 342 342 342 344 348 351 352 351 351 352 351 350 349 350 349 349 348 348 349 349 348 348 348 348 349 349 348 348 349 348 348 347 347 347 347 347 346 346 346 346 344 343 342 341 340 338 338 337 334 333 333 332 333 333 332 331 333 334 336 336 336 337 335 332 332 337 338 338 337 336 338 345 346 346 346 344 344 345 345 345 344 345
336 338 340 341 341 341 343 348 352 351 351 351 352 351 351 350 350 349 349 348 349 348 349 348 348 348 348 348 349 349 349 348 347 347 347 348 347 346 346 346 345 345 344 343 341 339 339 337 337 336 335 333 331 331 330 331 331 330 329 330 333 334 334 336 334 331 328 334 336 336 337 341 337 339 343 345 345 344 343 342 341 340 342 343 344
336 338 340 340 340 341 345 349 350 350 350 351 352 351 350 350 350 349 349 348 348 349 349 348 348 348 349 348 348 348 348 347 347 346 347 346 345 345 344 344 343 343 342 341 339 338 337 336 335 334 334 331 329 329 328 327 328 328 327 330 331 332 333 333 330 326 329 334 336 336 342 343 335 336 345 345 345 344 342 342 342 342 342 342 343
335 337 338 339 338 340 344 348 350 350 350 351 352 351 350 350 349 349 349 348 349 349 349 348 348 348 348 348 348 348 347 346 346 346 345 344 344 343 343 342 341 340 339 339 337 336 336 334 334 333 332 329 327 327 326 325 325 326 326 328 330 329 331 330 324 325 327 330 331 332 334 335 334 341 344 343 342 342 341 341 341 341 341 341 341
334 335 338 338 339 339 343 347 348 350 350 351 352 351 350 350 350 349 349 348 348 348 348 349 349 348 348 348 348 348 347 347 346 345 345 344 344 343 342 341 341 340 339 337 337 335 335 335 334 333 330 327 326 325 324 323 323 323 325 326 327 328 328 327 320 323 325 326 327 327 328 330 333 342 342 342 341 341 339 340 339 339 339 339 339
333 334 336 338 339 336 340 344 346 348 349 351 351 351 350 350 350 349 348 348 348 348 349 349 349 349 349 348 348 347 347 346 346 345 345 344 344 343 342 341 340 339 338 337 336 335 335 335 333 331 328 325 324 322 322 322 322 322 324 325 326 327 325 323 324 322 324 323 324 325 325 329 333 341 341 341 340 339 337 337 337 337 336 336 336
333 333 335 337 338 339 336 341 343 345 347 349 350 349 350 350 350 349 349 348 348 349 349 349 349 349 350 349 347 347 346 346 346 345 344 343 343 342 341 340 338 337 337 338 335 334 333 333 331 328 327 324 323 322 322 321 321 322 323 323 325 326 323 317 320 321 322 322 321 323 324 326 341 340 339 339 338 337 336 336 336 335 335 334 333
332 333 334 336 337 339 338 338 339 342 343 345 347 347 348 349 349 349 349 348 348 349 348 348 349 349 349 348 347 347 346 346 345 344 343 342 341 341 340 339 338 335 334 333 333 332 331 330 329 328 325 323 323 322 321 320 319 321 322 322 324 324 322 318 317 318 318 319 319 321 323 325 340 337 337 336 335 335 334 334 335 334 334 334 333
329 332 334 335 335 338 339 339 339 337 338 340 341 343 345 346 347 348 348 347 347 348 348 347 348 348 348 347 347 346 345 345 345 343 342 341 340 339 339 338 335 334 334 333 332 331 330 329 328 326 324 324 323 322 321 320 319 320 320 320 322 322 320 317 315 314 316 318 319 319 321 325 335 334 334 333 333 332 332 331 332 333 333 333 332
327 332 333 334 334 336 338 339 340 339 341 338 336 339 341 344 345 345 345 345 345 346 346 345 346 346 345 343 342 341 342 343 342 342 341 340 339 338 338 335 335 334 333 333 332 330 329 329 327 324 323 323 322 321 319 318 318 318 317 318 320 319 318 316 313 313 315 318 315 318 320 332 332 332 332 331 330 330 329 329 330 330 328 329 330
323 331 332 333 334 335 337 338 338 340 341 341 341 339 336 339 341 342 342 343 343 343 342 342 341 341 341 339 338 336 336 336 336 336 337 335 334 331 333 336 334 333 333 332 331 330 329 327 326 324 323 323 321 319 317 316 316 315 315 317 317 315 314 313 311 312 313 315 314 317 319 332 330 331 331 330 330 329 328 328 327 327 327 328 328
321 325 329 331 333 334 335 336 338 339 340 341 342 342 335 334 338 340 340 340 340 339 339 339 335 333 333 333 332 332 331 331 327 331 330 332 330 326 330 335 334 333 332 332 331 329 328 326 325 324 323 321 319 316 315 314 314 313 315 315 312 309 306 307 307 309 312 313 314 316 329 330 328 330 329 329 329 329 327 326 327 326 327 326 328
320 321 326 330 331 333 334 335 336 337 339 341 343 343 340 332 334 334 334 335 336 335 336 332 328 327 327 326 325 332 331 331 329 331 323 327 321 322 328 334 335 334 333 331 330 329 328 326 325 324 322 320 316 315 313 313 312 313 314 312 306 300 304 306 308 309 308 309 312 315 331 328 328 329 328 328 328 328 327 326 325 325 326 326 325
320 321 322 326 331 333 333 334 335 337 338 340 342 343 342 335 339 337 335 334 332 330 333 335 328 332 326 327 329 328 329 328 328 325 325 324 321 321 324 329 333 332 331 332 330 329 327 326 325 323 321 317 312 296 298 309 311 311 311 307 297 297 301 305 305 306 306 307 310 322 330 327 328 328 328 328 327 326 325 326 326 325 325 325 325
319 320 321 324 329 331 332 333 334 336 338 339 341 341 341 338 339 338 336 333 332 332 334 332 332 331 328 327 325 326 327 326 324 322 321 319 321 320 323 327 330 329 328 330 330 328 327 326 325 323 318 313 297 293 291 289 293 305 302 296 294 296 299 302 303 304 304 307 305 324 328 326 327 327 326 325 326 326 326 326 326 325 324 325 326
320 322 323 323 324 329 331 333 333 334 337 339 340 341 340 339 339 338 337 336 335 333 333 332 330 328 327 325 324 324 324 324 321 318 320 319 320 319 321 322 324 324 323 324 327 328 326 325 324 320 312 299 292 294 291 288 289 292 293 293 293 294 297 299 301 301 301 307 306 322 326 328 325 325 326 326 326 326 326 325 325 325 324 324 324
320 319 318 322 324 326 328 331 332 333 336 338 338 339 339 338 338 338 337 336 335 334 332 330 329 328 326 324 323 322 322 321 320 318 318 317 316 318 319 319 318 317 319 315 316 319 318 312 313 304 296 295 293 292 291 289 292 294 293 293 293 292 295 297 299 299 299 300 306 320 322 326 327 325 325 326 326 326 326 325 324 324 323 323 324
313 318 320 322 323 325 327 330 331 332 334 336 337 337 337 337 337 336 336 335 334 332 331 328 328 327 325 324 323 322 320 318 317 317 316 316 315 315 315 314 312 314 315 313 313 312 309 308 304 299 297 295 293 292 291 291 291 293 293 293 292 293 292 294 298 298 298 300 304 318 320 323 326 328 326 326 325 326 325 324 323 323 323 323 324
313 317 319 321 323 324 325 327 329 330 331 333 336 336 336 337 337 335 335 334 334 332 330 328 327 326 324 323 322 321 320 318 316 316 315 315 315 314 313 313 314 313 311 313 310 309 308 306 302 300 295 294 294 293 292 292 291 293 292 293 293 292 292 294 296 297 297 299 305 315 318 321 325 327 327 326 325 325 325 324 324 323 322 323 323
309 314 316 318 319 323 325 324 327 329 330 332 334 334 335 335 336 333 333 332 331 332 330 328 327 325 324 323 322 322 320 318 316 315 315 313 314 313 313 312 311 312 310 312 310 306 306 305 303 298 296 293 293 293 293 293 292 292 293 292 292 292 291 292 294 296 296 297 299 307 316 320 323 325 327 326 325 324 324 324 323 323 323 323 322
309 312 314 316 319 321 324 325 325 326 330 331 331 333 333 333 333 332 332 328 331 331 330 327 325 325 324 323 322 321 320 319 317 315 313 314 312 312 312 312 311 311 310 308 309 307 305 304 303 302 296 293 292 293 293 293 292 292 293 292 292 291 291 291 292 294 295 295 297 302 314 317 321 324 325 327 325 325 323 324 323 323 322 322 322
309 310 312 316 318 320 322 324 326 326 327 328 330 330 330 330 331 331 332 327 329 329 326 325 324 323 322 322 322 322 321 319 317 315 314 313 311 311 311 310 311 309 309 309 306 307 305 301 301 302 298 293 292 293 293 293 292 293 292 292 292 293 291 291 291 294 294 295 296 298 310 314 319 322 324 323 326 325 325 323 323 322 323 322 322
304 304 308 313 314 317 320 323 324 323 323 325 327 328 326 327 327 326 327 325 325 325 323 323 321 321 321 319 318 320 320 319 318 315 313 313 311 311 311 309 309 309 309 309 306 307 304 304 302 301 299 295 293 293 293 293 292 292 293 292 293 291 292 291 291 293 295 294 294 296 299 310 315 319 323 322 323 324 325 325 323 323 323 322 322
304 303 304 309 314 317 319 320 323 323 323 323 323 324 324 324 323 323 322 323 321 321 321 320 318 319 318 318 317 317 317 317 317 315 314 312 311 311 310 309 310 307 308 307 305 304 303 301 299 298 296 294 293 292 292 292 292 293 291 291 291 292 292 291 291 293 295 294 294 295 296 301 309 315 318 323 323 323 323 325 324 323 323 323 321
302 304 304 310 315 316 319 318 320 319 321 323 322 322 322 322 321 321 321 320 320 320 320 319 319 318 318 317 317 316 315 316 314 314 312 312 311 311 309 310 310 309 307 305 304 302 299 297 296 294 293 292 291 291 291 291 292 292 291 292 290 291 291 291 291 292 294 295 295 294 294 297 297 307 312 315 321 322 322 323 323 323 323 323 322
302 304 304 306 310 314 317 318 319 320 320 320 319 319 318 319 318 318 319 319 318 318 318 317 318 317 317 317 316 316 315 314 314 311 311 310 310 310 310 309 308 307 307 304 304 300 299 296 295 293 294 293 292 291 291 290 290 290 291 290 289 291 290 291 290 292 294 295 295 293 294 294 295 296 298 309 313 320 320 321 320 321 322 322 322
303 305 307 307 309 310 315 317 315 315 315 317 316 316 314 316 315 316 317 316 317 318 316 317 315 317 317 316 315 314 314 313 313 313 311 310 309 308 308 309 307 306 306 304 304 299 298 297 293 293 290 291 290 291 291 291 291 291 291 290 291 290 289 291 290 290 292 294 293 294 295 294 294 295 296 295 303 311 318 319 319 319 319 321 321
301 304 307 309 309 310 310 310 310 312 312 311 311 314 314 312 314 314 315 313 314 316 314 316 316 313 315 315 314 314 313 312 311 311 311 310 309 309 309 307 305 305 305 302 301 299 297 296 293 293 291 290 290 290 289 290 290 291 290 290 290 290 289 289 290 290 291 290 295 295 296 294 293 293 297 295 296 303 314 317 319 321 320 318 318
301 301 303 305 305 307 309 310 310 309 311 311 311 310 312 312 312 314 314 313 313 312 312 313 314 314 313 314 313 313 312 310 310 310 311 309 308 308 305 305 303 304 302 300 300 299 296 296 292 292 292 291 289 288 289 289 290 290 289 288 288 289 289 290 290 291 290 289 291 294 294 293 293 300 293 293 294 296 307 313 315 315 315 317 318
300 301 301 302 302 303 305 307 310 311 311 310 310 311 311 312 312 311 311 313 311 311 312 313 312 312 313 314 313 313 311 310 309 308 309 309 308 307 304 303 302 302 301 298 299 295 294 295 293 291 291 291 289 289 289 288 289 289 288 287 288 288 288 288 289 292 290 290 289 292 294 294 294 294 292 292 292 293 297 304 310 310 308 312 316
299 300 300 300 301 301 302 302 305 309 310 311 310 311 312 312 311 311 311 311 311 311 311 311 309 311 311 311 311 311 310 309 307 307 308 306 305 304 304 301 301 300 299 297 295 292 292 293 294 292 289 289 289 288 288 288 289 288 287 287 287 287 288 287 289 289 289 290 290 290 289 291 293 292 292 291 291 292 293 293 293 292 296 308 313
297 298 299 299 299 299 300 301 301 304 308 309 310 310 310 309 310 310 311 309 309 309 310 308 309 308 308 309 309 309 308 309 307 306 306 305 305 304 304 299 299 298 298 296 293 292 293 292 292 291 290 288 288 287 287 288 286 286 287 286 286 286 287 287 288 288 290 288 289 289 289 289 289 289 291 291 291 290 292 292 292 291 291 299 308
296 296 296 297 297 298 298 298 299 300 303 305 305 305 306 305 307 305 303 305 305 306 308 308 308 307 307 307 307 307 308 308 306 305 306 304 304 303 302 301 299 298 298 298 296 294 294 293 291 290 290 288 287 286 287 288 286 286 284 285 286 285 287 289 287 288 288 287 287 289 289 288 286 287 289 289 289 289 290 292 292 291 292 291 297
294 295 295 295 296 297 297 297 298 298 298 301 302 302 302 302 302 301 302 302 305 306 305 306 305 305 305 305 304 304 305 306 306 305 304 304 303 301 302 302 299 299 298 297 295 293 291 290 290 289 288 289 289 287 288 289 286 285 284 284 284 285 286 287 287 287 287 287 288 288 289 288 288 287 286 287 287 288 288 289 289 290 290 291 292
293 293 294 295 295 295 295 296 296 297 297 298 299 300 300 300 300 299 300 299 299 299 300 299 301 302 301 300 302 303 305 305 304 303 303 301 302 301 300 300 300 299 298 297 295 293 291 290 289 291 288 286 286 287 288 289 285 283 282 282 282 283 285 286 286 287 288 287 287 287 288 288 289 287 287 287 287 287 287 286 287 288 288 289 290
293 293 293 293 294 294 294 295 295 296 296 297 297 297 298 298 298 298 299 299 297 298 298 298 298 300 301 298 298 297 298 298 298 298 300 299 299 300 299 298 299 298 298 298 295 295 292 290 289 290 289 288 286 287 288 289 285 286 283 285 280 281 280 283 285 285 287 288 287 287 287 288 287 286 287 287 287 286 286 286 286 286 287 287 287
292 292 292 293 293 293 293 294 294 294 295 295 296 297 297 297 297 298 297 297 298 297 297 297 296 296 298 299 298 295 296 295 295 295 296 296 296 296 297 296 298 297 297 297 296 296 295 294 292 290 289 290 288 286 286 288 287 289 286 280 281 282 281 280 281 282 282 285 286 286 287 287 287 286 287 287 286 287 287 286 286 286 286 286 286
291 291 292 293 293 293 293 293 294 294 294 294 295 296 295 295 295 294 293 293 293 293 293 293 293 294 295 296 297 296 296 295 293 294 293 294 294 293 294 294 294 295 296 296 296 295 294 293 292 292 291 289 290 288 286 287 289 288 286 284 284 282 282 280 284 283 281 284 284 285 286 286 286 286 286 286 286 286 287 287 287 287 286 286 286
289 290 291 292 292 293 293 293 293 293 294 293 294 294 293 293 293 293 292 292 291 291 292 293 293 293 294 294 294 295 296 296 296 294 294 293 293 292 292 292 292 292 292 293 294 294 295 294 293 292 292 292 289 287 287 287 287 288 288 287 285 284 282 283 283 282 282 283 282 284 285 284 285 285 286 286 286 286 286 287 287 287 286 287 287
288 289 290 290 291 291 292 292 292 292 292 293 293 293 292 292 292 291 292 291 291 290 291 292 293 293 293 293 293 293 294 294 294 295 295 295 294 295 292 291 292 290 291 290 291 292 293 293 293 292 292 291 290 289 288 286 287 287 289 289 288 285 283 285 282 284 283 283 283 282 281 284 283 285 286 286 286 286 286 286 286 286 286 286 287
288 288 288 289 290 290 290 291 291 292 292 292 292 292 292 291 291 291 290 290 291 290 291 292 291 292 291 291 292 292 292 292 292 292 293 293 293 293 293 293 292 291 290 289 289 289 289 289 290 291 291 291 290 290 289 288 287 287 286 286 287 287 286 284 284 283 283 281 284 281 282 282 282 284 285 286 286 286 287 287 286 287 286 286 286
287 287 287 288 288 289 289 289 289 290 290 290 291 291 291 291 290 290 289 289 290 290 290 289 290 290 289 290 290 290 290 291 291 291 291 291 291 292 292 292 292 292 290 289 288 288 288 287 288 288 290 290 291 290 290 290 289 288 287 288 286 284 284 285 283 284 284 283 285 284 280 282 282 284 286 286 286 286 286 286 286 286 286 286 286
285 286 286 286 287 287 288 287 288 288 288 288 289 289 290 290 290 289 289 288 289 288 288 288 288 288 288 288 288 288 289 289 289 290 290 290 290 290 291 291 291 291 290 290 290 289 289 288 288 287 287 287 288 289 289 290 289 288 287 286 286 286 286 285 284 284 285 285 283 284 282 281 283 284 283 285 287 286 286 285 285 286 286 286 286
Wind_Speed
7 12 10 14 16 16 19 18 18 17 17 16 16 15 15 14 13 12 13 13 12 13 12 12 12 11 11 10 10 9 9 9 9 9 8 8 7 8 7 7 7 8 10 10 11 13 13 12 12 12 11 12 12 12 12 12 12 12 11 11 11 11 11 11 12 12 11 11 12 10 9 9 10 11 11 12 12 12 10 9 9 6 4 6 10
12 11 11 11 18 17 18 19 18 17 17 17 16 15 15 14 13 13 13 13 13 13 13 13 12 11 11 10 10 9 9 9 8 8 7 7 7 7 7 7 7 9 10 11 11 13 12 11 11 11 11 11 11 10 10 11 11 10 10 10 9 9 10 11 11 10 11 10 9 9 8 9 9 10 12 12 12 12 10 10 9 4 3 8 10
10 9 10 12 17 17 17 18 19 18 18 17 16 15 15 14 14 14 13 13 14 14 15 14 13 12 11 10 10 9 8 8 8 7 7 7 6 6 7 8 8 9 10 11 12 12 12 11 10 11 11 10 10 9 9 9 9 9 8 8 8 9 9 9 9 9 9 9 8 8 8 7 9 10 10 11 12 12 10 10 9 7 5 11 9
12 10 9 12 16 17 17 18 18 18 17 17 16 15 14 14 14 14 14 13 14 14 14 14 14 13 12 11 10 9 9 8 7 7 7 7 7 7 7 9 10 10 11 11 12 13 12 11 10 10 10 10 10 9 9 8 8 8 8 7 7 8 8 8 8 7 7 8 7 6 3 3 4 9 10 11 12 11 9 10 10 10 10 10 10
11 9 9 9 11 14 17 18 18 18 17 17 16 16 15 15 14 14 14 15 15 14 14 13 14 13 12 12 11 10 9 9 8 8 8 8 8 8 8 9 11 11 11 11 12 13 11 10 10 10 9 9 9 9 8 8 8 7 7 7 6 7 8 8 7 7 6 5 5 3 3 3 3 7 10 10 11 9 8 10 11 13 12 11 11
9 9 9 9 9 11 16 17 18 18 18 18 17 16 16 15 15 14 14 15 15 15 14 14 14 13 12 12 11 10 10 9 9 9 9 9 9 8 8 9 10 11 11 11 11 12 11 10 10 9 9 9 8 8 8 7 7 6 6 6 6 7 7 7 6 6 5 3 1 0 2 3 2 3 10 10 10 9 9 11 11 12 13 13 13
11 8 9 9 8 10 14 16 19 17 19 19 17 17 17 15 15 14 15 15 14 14 14 14 13 13 12 11 11 11 10 10 10 10 10 10 10 9 9 9 10 10 10 9 9 9 9 8 9 8 8 8 8 8 7 7 6 6 6 6 6 6 7 7 6 6 5 2 2 2 3 2 2 2 9 9 9 10 10 10 11 12 14 14 13
7 8 9 8 8 10 14 15 17 16 18 18 17 18 16 16 15 15 15 15 14 13 13 13 13 12 12 12 11 10 10 10 11 11 11 10 10 10 10 10 10 10 10 9 9 8 6 6 6 7 7 7 7 7 7 6 6 6 6 5 6 6 8 7 7 6 5 2 4 4 4 2 2 2 8 9 10 11 12 12 12 13 13 13 10
8 8 9 8 7 12 14 14 15 18 19 18 17 17 17 17 15 15 15 15 14 14 13 13 12 12 12 11 11 11 11 11 11 11 11 11 11 11 10 10 10 11 10 8 8 7 6 5 4 4 5 6 6 6 6 6 6 5 5 6 6 6 8 8 7 6 3 3 4 4 4 3 3 3 8 10 10 12 12 10 10 12 12 11 8
7 8 8 8 8 13 14 14 15 19 19 16 16 16 17 16 16 16 15 15 14 14 13 13 12 12 12 11 11 11 11 10 11 11 12 12 11 11 10 10 9 9 8 8 6 5 5 4 5 5 5 5 5 6 6 6 6 5 5 5 6 7 8 8 7 5 3 3 4 4 3 4 4 3 7 10 11 12 11 9 7 6 6 9 10
8 8 8 8 8 13 14 14 15 17 17 16 16 15 18 16 16 16 16 16 14 14 13 13 12 12 12 11 11 11 11 11 11 12 12 12 11 10 9 8 6 4 7 7 5 5 4 4 3 3 4 4 5 5 5 5 5 5 5 5 6 7 8 8 5 3 3 3 4 4 4 6 3 3 10 11 12 11 10 9 7 8 9 10 10
8 8 8 7 10 14 15 15 15 16 15 15 16 16 16 15 15 15 16 16 15 15 14 13 12 12 12 11 11 11 12 12 12 12 12 12 11 10 8 7 6 6 5 4 2 2 2 2 1 2 3 3 4 4 5 5 5 5 5 5 6 8 8 7 4 4 3 4 3 3 2 2 3 5 10 9 9 9 8 8 8 8 9 9 9
8 8 8 7 8 13 15 15 15 15 15 15 17 19 17 16 15 15 15 15 15 15 15 13 12 13 12 11 11 12 13 13 14 13 12 13 12 10 9 7 6 6 5 5 4 2 1 2 2 2 1 2 3 3 4 4 4 4 4 5 7 7 7 7 4 5 4 4 3 3 2 1 1 8 8 8 7 7 6 8 7 7 6 6 6
9 9 8 8 8 13 16 15 15 16 15 15 17 18 17 16 16 15 15 15 14 13 13 12 12 12 11 12 13 13 14 14 14 14 13 12 11 10 9 8 6 5 4 4 5 4 5 5 3 2 2 2 3 3 3 3 3 4 4 6 7 6 6 5 5 4 4 4 3 3 3 1 2 7 8 7 7 7 6 5 6 6 6 6 5
11 10 9 9 9 10 16 16 15 15 15 15 16 16 16 16 15 15 14 13 13 12 12 11 11 11 11 13 13 13 14 15 14 12 12 11 11 10 9 8 5 4 4 6 7 4 3 4 3 2 3 2 2 2 2 2 3 3 5 6 7 7 7 4 4 4 4 4 3 3 3 2 4 8 8 7 7 6 6 5 5 4 3 4 4
9 10 9 9 9 10 11 14 16 16 15 15 16 16 16 15 15 15 14 13 13 12 11 11 10 10 9 10 13 14 14 16 15 13 11 11 10 9 9 8 6 6 4 3 5 4 5 4 5 5 3 2 3 3 3 2 2 4 6 7 6 7 7 6 5 4 4 4 3 3 3 3 3 5 6 5 5 4 3 4 4 4 3 2 2
6 7 10 10 10 10 11 11 12 16 16 16 15 15 16 15 16 15 14 14 13 13 12 11 10 10 10 11 13 13 13 13 12 11 10 9 10 9 8 8 7 6 6 5 6 6 6 6 6 4 3 3 3 3 3 3 4 5 6 6 7 8 7 6 5 4 5 3 3 3 4 3 5 3 4 4 4 2 2 1 3 3 2 3 3
5 7 9 9 9 10 11 10 11 11 10 13 15 15 15 15 16 15 14 13 13 13 12 11 10 10 11 11 12 12 12 11 11 11 10 9 10 8 7 8 8 8 7 7 7 7 7 7 6 5 4 4 4 4 4 4 5 6 6 6 7 8 7 7 4 4 4 4 4 3 3 4 7 6 5 4 3 3 3 2 2 2 1 1 2
4 5 6 8 9 9 10 10 10 10 10 9 8 12 15 15 15 15 14 14 13 13 12 11 11 11 11 11 12 12 11 11 10 10 10 9 9 8 8 8 9 8 8 8 8 8 8 7 6 6 5 5 4 4 4 4 5 6 6 6 7 7 8 6 4 4 3 4 3 4 3 3 5 6 5 5 5 5 4 3 2 2 1 2 3
4 4 5 6 7 8 8 9 9 10 9 8 9 9 12 14 15 15 14 14 13 12 12 12 12 12 11 12 12 10 10 9 12 9 10 10 9 7 8 7 9 9 9 9 8 9 9 8 7 7 6 5 5 4 4 5 6 6 6 6 7 8 5 4 4 4 4 3 2 3 4 2 4 5 5 4 5 4 4 3 2 3 3 3 4
2 4 4 6 6 8 9 8 9 10 9 9 8 9 10 13 12 14 15 14 13 13 12 13 12 11 10 10 10 7 6 6 9 7 10 7 9 10 9 8 8 8 8 8 9 9 9 8 7 7 7 7 6 5 3 5 6 6 6 6 7 6 4 4 4 3 3 2 3 3 6 2 4 5 5 5 4 4 4 4 4 3 3 3 3
5 5 4 5 7 7 9 9 8 10 9 8 7 8 8 10 9 9 9 11 12 12 11 9 9 8 10 8 7 6 6 6 6 7 6 7 8 10 9 8 8 8 7 8 9 9 10 9 8 8 8 7 6 2 2 4 5 6 5 6 6 4 3 4 4 3 3 3 3 4 7 3 4 4 5 5 5 5 5 4 4 5 5 4 4
7 7 6 7 7 7 7 9 9 9 9 9 7 8 9 8 8 9 8 9 9 10 8 9 7 8 7 7 6 6 6 6 6 7 6 9 8 10 10 9 9 8 8 7 8 9 10 9 9 8 8 7 3 2 1 2 3 4 5 4 5 4 3 3 3 3 2 1 2 6 6 1 4 4 4 4 5 5 6 6 6 5 4 5 6
9 9 9 5 6 7 9 9 10 9 10 8 7 7 7 7 8 7 7 7 7 8 8 8 7 7 8 7 6 6 7 6 8 11 9 6 7 9 11 10 9 9 9 6 8 8 10 9 9 9 6 4 3 2 1 2 3 2 3 3 4 3 3 3 3 3 2 2 2 5 5 3 3 4 5 5 6 6 5 4 5 5 3 5 5
8 4 3 7 8 8 8 9 9 9 10 8 8 8 7 7 7 7 7 7 6 7 6 7 7 7 7 6 6 6 6 6 6 6 6 6 6 6 6 5 5 5 7 5 5 5 5 4 6 5 4 3 3 2 2 2 1 2 2 2 3 3 3 3 3 2 2 1 1 4 5 4 2 5 6 6 6 7 8 7 6 4 2 3 5
3 6 10 8 9 9 9 9 8 9 10 9 9 8 8 7 8 8 8 7 7 7 6 6 6 7 6 6 6 6 6 6 5 6 6 6 6 6 6 6 4 5 5 6 5 6 5 6 5 5 3 3 3 3 2 3 3 2 2 1 3 3 3 3 2 2 1 1 1 4 4 5 3 3 7 7 7 8 7 6 5 5 5 4 5
8 10 9 8 8 7 8 6 8 8 9 9 8 7 8 8 7 7 8 7 7 7 6 6 6 6 6 6 6 5 5 5 6 5 6 5 6 6 6 5 6 6 5 6 5 5 6 6 6 5 4 3 1 2 2 1 3 4 3 2 2 3 3 3 2 3 1 0 1 3 4 4 4 5 7 8 8 8 7 7 8 6 4 5 6
4 10 8 8 8 11 9 7 8 8 8 8 8 8 8 8 8 7 8 7 7 8 7 6 6 7 6 6 6 6 6 6 5 6 5 5 6 6 5 5 5 5 5 6 6 5 5 5 5 4 4 3 2 3 3 2 2 3 4 3 3 2 3 3 3 2 2 1 0 2 3 3 4 5 6 10 9 9 9 8 7 7 8 7 6
7 9 9 7 10 10 8 10 8 9 8 7 8 7 6 7 7 7 8 7 8 7 7 6 6 6 7 7 6 6 5 6 6 6 5 6 5 5 5 5 5 5 5 5 6 6 5 5 6 6 4 4 2 3 3 3 1 2 4 3 3 3 3 3 3 3 2 1 0 1 3 3 4 4 5 6 9 10 7 8 9 8 7 9 8
8 5 4 9 7 6 8 11 11 10 8 7 7 6 6 7 7 7 7 6 7 6 5 6 6 6 6 7 9 8 7 6 6 5 7 6 5 5 5 5 5 5 5 6 5 6 6 5 5 5 5 4 3 3 3 3 3 3 2 4 3 4 4 4 4 4 3 2 1 0 2 3 3 4 5 6 6 10 10 10 9 9 9 8 8
2 3 2 4 3 4 8 9 8 6 6 8 7 7 6 7 6 5 5 5 5 5 5 5 5 6 6 6 5 6 7 7 7 7 6 6 6 6 5 5 5 5 5 5 4 5 5 6 6 6 6 5 5 4 4 4 3 3 3 3 5 3 4 3 3 3 3 3 2 1 0 3 2 3 4 4 5 7 12 11 11 10 9 8 8
4 4 4 2 3 5 5 5 7 6 6 6 6 6 6 6 5 5 5 5 5 5 5 5 5 5 5 5 6 5 5 5 7 7 7 6 6 6 6 6 6 5 5 5 5 4 5 4 4 4 4 4 5 4 4 5 4 4 3 4 3 4 4 4 4 3 3 3 3 2 1 0 3 2 3 3 1 2 4 3 10 10 10 10 10
6 4 3 4 7 7 6 4 4 5 6 7 7 5 5 5 5 6 5 5 5 5 5 6 5 5 5 5 6 5 5 6 6 6 6 6 6 7 6 6 6 6 6 5 5 4 4 4 4 2 3 3 4 4 3 4 5 5 4 4 4 4 4 3 4 3 4 4 4 3 2 0 0 2 3 4 4 3 2 3 5 11 11 12 10
7 7 5 4 3 0 2 3 5 6 6 4 4 5 4 4 4 5 5 5 5 6 6 6 6 6 6 6 6 6 6 6 6 5 6 6 6 6 7 6 6 5 5 6 6 5 6 4 5 4 4 5 6 5 5 5 5 4 4 4 4 5 4 4 5 5 4 4 4 3 3 1 1 1 0 3 4 3 2 2 3 2 11 10 10
9 11 11 7 7 5 3 2 2 2 2 2 3 3 4 5 5 5 5 5 5 6 5 5 5 6 6 6 6 6 6 6 6 7 6 6 6 6 6 6 6 5 6 5 6 6 6 7 6 5 3 4 4 4 5 6 5 6 6 4 6 5 3 5 4 4 4 4 3 4 4 3 2 1 1 1 2 3 3 2 1 1 3 8 8
13 9 10 11 12 9 7 5 4 4 4 3 3 4 4 4 5 5 5 4 5 5 5 6 5 4 6 6 6 6 6 6 6 6 6 6 6 6 6 5 5 5 5 5 5 6 5 5 5 6 6 5 4 6 4 6 5 6 4 5 4 4 5 4 5 4 5 4 5 4 4 3 3 3 2 1 1 1 3 3 4 4 4 2 5
12 13 12 12 13 11 11 10 8 6 5 5 5 4 5 4 4 4 4 5 5 5 3 4 4 5 6 6 5 6 6 6 6 6 7 6 6 6 6 5 4 6 6 5 6 6 6 6 4 5 5 7 6 5 5 5 6 4 4 4 4 4 4 6 5 6 3 4 4 5 4 4 3 4 3 2 1 1 2 2 3 4 4 4 2
12 13 12 12 10 10 10 10 9 8 7 7 6 6 6 6 6 6 6 6 5 4 3 3 4 4 5 5 5 5 5 5 5 5 6 5 5 5 4 5 5 5 5 5 6 4 4 6 6 5 6 5 6 6 6 4 3 4 4 4 4 3 4 4 4 4 5 5 5 5 6 5 4 5 4 3 3 2 1 1 2 2 2 1 0
11 13 14 13 12 11 11 12 11 9 8 8 7 7 7 7 6 7 7 7 6 6 5 5 4 3 1 1 2 3 3 3 3 4 5 5 4 4 5 4 5 5 5 5 4 4 4 4 6 6 3 3 3 4 4 3 3 2 3 4 2 4 4 4 4 4 5 5 5 4 3 6 5 4 4 4 4 3 3 2 1 1 1 1 2
12 12 14 14 13 12 10 12 11 9 8 8 7 7 7 7 7 7 8 7 6 6 6 5 5 5 4 4 2 1 1 2 3 3 3 3 3 4 5 4 4 5 5 5 5 6 8 6 6 5 5 3 0 3 3 4 1 0 2 3 3 3 5 4 4 5 5 5 4 3 6 6 5 4 4 4 4 4 4 4 3 3 3 3 4
14 14 14 14 13 11 13 13 10 11 9 9 8 7 7 5 6 6 5 5 5 5 6 6 5 4 4 3 2 3 2 2 1 1 1 1 1 1 1 2 3 5 5 7 7 8 6 6 5 3 6 5 4 2 3 4 4 1 2 2 4 3 3 2 5 6 6 5 4 7 6 4 4 5 6 5 4 4 4 4 5 4 4 4 4
13 13 13 12 12 13 13 11 11 11 11 8 6 7 5 3 5 4 6 6 7 7 7 6 5 5 5 4 2 1 1 1 2 1 1 1 1 1 2 3 3 5 4 1 2 2 3 4 3 3 2 6 6 4 4 6 1 5 3 3 4 6 5 4 5 7 6 5 7 7 5 6 7 6 4 4 5 5 5 5 4 5 4 4 4
10 12 11 13 13 11 11 10 11 11 10 10 9 6 5 6 6 4 4 4 4 4 5 3 4 6 6 5 5 4 4 4 3 2 1 0 0 1 2 1 2 2 3 3 3 4 5 5 5 6 4 1 3 1 5 7 5 2 1 2 4 2 4 5 7 7 6 7 6 6 6 6 8 6 6 5 6 6 5 5 5 5 5 5 6
12 12 12 11 10 10 10 11 11 10 10 10 9 6 5 5 6 7 8 8 5 6 8 9 10 8 7 4 5 4 4 4 4 3 3 3 1 1 0 1 2 2 3 4 4 5 4 4 4 6 4 4 3 5 6 7 4 6 3 7 3 1 6 8 9 5 7 9 8 8 5 7 6 5 5 7 7 6 6 5 6 6 6 6 6
12 12 11 10 8 10 10 10 10 10 9 10 10 8 9 9 7 8 8 9 10 11 11 11 10 7 7 9 7 4 4 4 4 4 3 3 3 2 1 1 0 1 2 3 4 6 5 5 5 5 5 7 7 4 4 6 8 7 5 2 1 2 6 5 1 6 3 6 9 8 7 7 7 7 7 8 6 7 7 6 7 6 7 6 6
11 9 8 9 10 10 11 11 10 10 10 10 9 9 9 9 10 10 9 8 9 9 9 7 8 9 7 5 9 9 7 5 4 4 4 3 3 3 2 1 1 1 1 3 3 2 3 4 6 7 7 6 7 6 5 4 9 9 5 3 3 3 2 2 1 7 1 6 4 5 7 7 5 7 7 7 8 8 6 8 7 8 7 6 6
9 6 8 9 11 10 10 11 10 9 9 10 10 9 10 9 9 8 7 7 7 6 4 5 7 7 8 11 9 10 9 10 9 7 6 5 4 3 2 1 1 1 1 1 3 4 4 4 3 3 6 6 4 6 7 7 3 6 7 9 6 2 1 1 4 2 7 1 3 6 7 5 5 6 8 9 8 7 7 7 8 8 7 7 7
5 6 8 9 11 10 10 11 10 10 10 9 11 9 9 7 8 8 8 8 7 6 7 6 7 7 10 10 9 9 10 10 11 10 10 10 9 8 5 3 2 1 0 2 3 4 3 3 3 3 4 4 5 7 7 6 7 5 7 12 11 6 3 1 2 2 4 7 5 1 3 5 5 7 8 9 9 9 9 8 8 7 7 7 7
8 8 8 8 8 9 10 11 12 11 10 11 11 11 10 8 7 7 9 6 7 6 5 7 8 8 11 10 10 9 10 10 10 10 10 11 10 8 8 7 6 4 1 2 2 2 3 4 4 4 5 5 5 6 6 7 6 8 4 6 7 10 8 6 2 1 4 4 9 4 5 1 3 7 9 10 8 9 11 10 8 8 8 8 8
7 6 7 7 8 8 11 13 12 10 9 11 11 12 10 8 10 10 10 9 8 7 8 9 8 7 9 9 8 9 8 9 9 10 11 11 10 10 9 8 7 6 4 2 3 3 3 3 4 4 4 5 5 5 7 7 7 6 7 5 5 4 5 7 6 6 5 6 12 9 4 6 7 8 10 10 12 11 8 7 8 9 9 9 8
6 8 9 9 8 10 10 13 10 9 10 11 11 11 10 9 9 10 10 10 9 9 10 10 9 10 9 8 8 7 7 7 8 9 9 10 9 9 8 8 7 6 7 6 4 4 4 3 4 3 4 5 6 6 6 6 7 6 6 6 8 8 9 7 7 7 8 9 7 8 6 6 8 8 5 8 9 8 7 7 8 9 10 10 8
Wind_Direction
218 174 179 187 183 180 177 176 173 170 168 166 164 162 163 160 157 154 153 152 150 152 151 148 143 139 134 133 132 131 129 127 128 125 122 120 118 116 111 113 114 115 120 115 109 103 101 97 95 92 88 82 80 78 76 74 75 76 74 74 70 68 64 62 62 64 61 61 71 71 64 65 68 71 76 79 79 76 71 67 64 60 59 62 75
179 183 178 183 183 179 179 175 175 172 172 170 167 166 165 162 158 158 157 155 157 155 152 149 146 142 140 136 139 139 139 136 136 134 129 126 119 121 122 117 121 123 125 117 109 103 100 98 98 96 92 89 85 82 80 78 77 70 72 74 75 67 63 62 62 65 64 54 46 48 56 71 69 69 74 82 81 77 72 70 68 61 52 80 76
147 173 177 182 182 179 179 177 176 174 175 172 171 169 167 163 158 160 159 162 161 157 154 153 150 149 148 147 149 149 148 147 143 139 136 130 127 128 130 128 127 129 120 114 110 100 97 97 94 94 92 87 82 78 74 74 74 75 76 71 55 56 58 60 62 68 60 47 40 33 32 49 73 75 75 74 75 75 75 72 69 62 72 70 70
151 173 177 183 182 180 178 176 176 175 176 174 173 171 167 162 162 162 162 166 162 159 158 156 155 157 155 155 158 158 156 153 150 145 140 135 132 125 128 132 136 128 123 117 104 98 93 92 89 87 89 89 87 79 72 64 62 60 58 54 50 51 55 50 46 39 26 24 28 37 29 19 56 84 85 84 83 77 73 72 71 72 72 76 74
154 162 175 180 182 183 179 174 176 176 174 175 173 173 168 164 165 164 167 166 164 162 162 161 160 161 162 161 162 162 163 158 155 152 145 141 137 135 132 140 138 131 127 118 108 95 92 90 86 80 78 79 80 81 76 70 63 54 46 41 43 48 49 44 36 22 13 7 8 16 27 15 30 87 89 87 83 78 77 72 64 58 60 66 68
156 161 170 178 180 185 182 176 176 176 174 176 174 173 170 166 165 166 171 169 167 166 168 168 166 168 168 168 167 167 167 163 162 156 151 146 142 137 140 141 142 137 131 128 112 99 92 85 81 78 74 72 70 71 72 68 66 60 46 32 22 30 46 43 28 9 350 334 189 317 42 22 7 75 97 93 87 77 78 73 67 63 60 59 58
155 162 168 175 179 185 184 179 177 176 176 176 174 174 171 169 168 169 173 173 172 172 173 172 172 172 173 174 172 170 167 168 167 161 156 150 146 143 141 139 136 136 136 124 113 109 100 92 81 70 71 68 66 63 61 58 52 46 46 37 21 16 35 35 20 349 332 6 140 126 81 66 55 69 90 86 91 88 84 81 75 67 62 58 54
150 162 172 173 177 185 183 182 180 176 177 176 175 175 172 170 172 173 175 177 177 176 177 178 178 178 179 178 175 172 172 169 167 163 156 151 147 137 138 140 139 135 131 124 107 101 102 92 89 77 68 64 64 63 60 58 50 39 31 30 28 17 24 26 9 353 356 74 114 117 102 88 85 75 100 90 82 81 80 77 72 67 61 57 53
161 166 168 172 178 181 184 184 181 180 180 178 177 176 174 173 174 175 177 180 180 180 181 183 183 186 184 180 179 178 175 171 164 159 155 146 140 139 140 145 143 137 134 120 113 108 103 94 80 81 68 63 61 59 58 54 50 41 28 21 23 27 22 18 14 9 23 97 110 115 113 118 104 94 106 102 90 78 71 63 57 63 65 59 54
164 165 169 170 177 181 184 184 183 183 183 180 178 178 175 175 176 175 180 182 183 183 184 185 189 191 190 183 182 184 170 171 160 158 151 144 141 138 139 139 142 146 135 121 117 124 127 105 104 70 65 60 57 59 57 53 45 39 30 26 25 29 26 22 29 21 51 103 107 110 125 128 109 113 111 97 88 81 74 75 81 78 69 63 58
164 168 169 172 176 180 185 185 184 185 186 180 183 179 179 176 178 178 182 183 183 187 187 189 193 195 195 190 183 183 171 168 164 158 151 143 133 134 126 125 119 144 149 138 155 142 129 148 106 94 63 51 49 52 50 45 44 39 37 30 32 31 28 34 39 36 60 93 107 116 131 124 122 120 110 103 94 89 83 78 78 77 73 69 63
167 167 170 173 177 180 185 187 183 185 187 181 184 184 181 178 179 181 184 184 185 188 188 190 196 198 196 194 184 185 171 167 167 157 141 139 144 145 131 123 109 87 94 155 153 291 156 97 168 86 64 33 48 40 42 39 36 36 40 39 35 29 27 37 49 53 63 73 81 86 98 115 136 121 117 111 104 101 98 88 81 74 75 73 70
170 168 171 172 177 183 185 188 185 186 187 182 186 186 184 179 181 184 186 187 190 192 190 192 194 196 198 196 186 188 170 172 165 154 149 152 155 148 143 136 128 121 119 126 151 164 253 178 166 174 131 70 53 41 34 39 40 41 44 47 36 29 33 49 53 65 62 58 57 50 51 51 145 122 116 109 101 90 90 80 70 64 67 68 64
168 173 172 174 180 185 186 188 187 187 188 183 188 188 187 182 182 186 187 189 193 194 196 196 198 194 194 194 187 183 178 174 170 162 158 161 154 150 149 150 149 156 177 173 160 183 213 229 226 159 147 99 64 45 51 51 52 55 57 50 37 32 52 54 58 68 69 59 49 42 33 11 109 120 117 112 105 89 74 78 72 68 58 58 57
167 173 173 175 178 184 188 189 188 188 188 186 187 188 188 184 183 186 188 190 194 196 197 200 201 196 194 191 185 180 180 177 178 167 162 161 156 153 154 156 166 179 190 215 228 226 217 202 172 168 137 107 89 90 84 65 58 64 63 50 42 41 66 74 66 66 67 58 41 43 30 343 138 126 119 109 97 90 84 74 78 68 74 80 78
172 170 170 178 180 182 187 192 189 189 189 188 188 188 188 184 185 187 188 190 192 197 200 202 203 198 194 179 181 176 177 180 177 169 162 162 161 163 165 170 184 162 167 139 146 153 153 126 116 124 136 130 135 113 100 96 85 71 61 47 40 50 68 86 77 67 65 59 45 40 23 0 123 137 133 115 93 92 87 86 74 74 74 56 40
172 171 170 180 180 183 187 190 192 189 189 189 190 189 189 185 185 187 190 190 190 193 198 201 202 193 185 180 181 175 177 173 172 166 162 163 165 168 170 173 170 174 171 160 153 147 139 133 139 152 149 146 138 127 109 99 88 76 64 47 47 57 65 84 83 73 67 59 50 30 17 19 56 113 161 140 125 100 119 130 103 104 84 75 60
175 172 182 179 181 185 186 189 190 192 191 191 191 190 190 187 186 188 189 189 190 192 194 196 194 187 183 179 176 173 178 173 173 165 163 160 161 159 160 167 162 165 168 161 160 147 142 136 155 162 156 149 134 122 113 105 91 77 63 50 50 60 67 83 85 73 68 60 43 25 17 39 85 90 83 97 122 138 122 108 116 100 98 45 96
188 191 181 180 188 184 188 188 190 191 191 190 191 194 192 190 187 189 189 188 189 192 191 188 185 181 177 176 175 174 179 170 161 161 156 152 151 154 162 161 165 167 169 167 166 157 147 149 173 163 158 148 132 120 115 104 93 76 62 55 54 59 69 79 82 77 69 60 36 32 0 61 101 103 107 117 128 123 112 118 109 81 90 119 154
203 203 186 194 186 187 188 191 191 192 190 190 192 192 195 192 189 187 189 188 188 190 187 183 178 177 174 172 174 171 172 163 155 156 156 153 152 155 164 163 166 170 173 175 170 160 155 157 177 162 155 146 128 111 110 109 94 72 62 58 65 66 69 76 81 73 67 57 43 19 4 28 132 127 126 128 124 123 114 118 152 170 151 141 124
219 222 205 195 191 188 191 191 195 192 191 190 193 193 195 193 192 189 188 188 186 186 183 177 173 175 170 169 165 159 165 162 159 161 158 156 160 163 165 166 166 164 172 181 172 163 156 161 174 164 154 126 97 83 80 101 82 66 64 64 66 65 76 78 73 72 60 39 31 7 5 57 133 141 134 133 136 133 136 140 154 135 134 144 120
220 229 235 211 192 198 192 192 191 195 191 192 192 193 191 192 192 192 190 188 186 182 180 175 173 171 168 162 158 156 161 162 162 158 161 161 165 167 167 166 162 160 167 180 175 169 159 168 171 166 138 121 108 77 26 53 62 60 63 70 64 75 74 82 81 71 56 26 23 5 9 124 135 134 142 141 136 143 152 154 139 143 160 155 134
250 230 227 210 204 194 197 194 193 192 193 194 194 192 190 190 194 191 192 188 185 182 178 175 173 170 168 163 158 157 160 160 161 165 166 168 168 170 168 166 162 160 169 173 173 175 163 171 175 152 135 118 100 111 88 71 53 52 62 65 73 80 90 87 85 79 63 25 12 5 14 125 148 153 149 153 156 160 166 168 163 119 131 150 160
228 217 213 194 199 203 200 197 193 190 191 196 194 191 191 188 194 191 186 186 185 186 180 177 174 171 170 163 162 160 159 162 169 167 160 165 173 172 171 168 162 162 165 163 167 164 169 172 176 140 108 103 125 149 123 96 71 48 68 75 79 85 95 104 106 99 69 28 12 9 3 36 178 176 165 163 164 170 176 155 136 161 173 184 173
219 238 252 215 203 204 198 203 196 191 192 196 196 194 187 187 194 189 184 182 184 187 183 177 175 173 170 165 164 159 158 160 160 162 166 164 165 174 173 165 159 164 159 154 150 157 148 135 113 103 126 131 135 189 149 132 77 77 95 82 87 85 92 97 106 99 76 35 2 10 356 356 350 191 184 173 173 179 182 168 164 145 177 207 169
202 211 221 221 210 201 200 201 192 194 194 195 198 193 185 193 192 188 183 182 182 184 181 179 175 174 168 163 156 159 157 156 161 167 168 168 168 174 177 165 160 169 160 154 152 140 128 127 136 136 157 147 165 193 208 160 137 113 125 101 102 98 103 107 117 110 87 39 355 1 359 344 329 295 202 189 180 195 194 177 168 174 175 202 213
203 219 215 219 215 205 206 194 198 195 200 199 196 195 198 198 195 187 183 186 180 180 185 179 177 167 166 161 159 164 161 164 170 172 173 172 175 175 174 173 170 170 173 153 160 153 145 147 151 161 163 160 201 237 239 178 144 145 149 145 126 133 122 132 135 141 174 98 0 355 351 342 316 311 229 205 186 210 204 184 201 174 169 202 208
186 227 219 216 204 210 198 182 197 196 201 200 197 200 203 199 198 186 193 184 180 187 183 184 169 169 168 166 169 165 168 172 179 177 180 174 182 177 172 176 172 175 172 164 157 159 152 152 158 162 166 181 211 246 246 213 159 145 153 169 148 154 148 148 159 167 184 191 0 334 346 332 325 298 290 211 199 202 212 197 217 192 188 201 203
224 227 218 207 216 208 190 193 190 196 199 192 200 202 202 204 200 195 196 182 190 191 185 170 174 173 171 170 170 169 174 176 179 182 161 188 178 178 175 181 174 172 163 178 165 163 162 163 168 171 179 185 206 242 236 232 188 173 160 172 169 178 163 149 160 173 191 189 266 329 339 338 312 309 309 267 204 213 211 208 213 205 202 209 183
253 281 233 220 216 189 193 199 194 189 188 182 200 195 194 200 202 204 204 189 197 189 169 178 177 173 184 182 178 173 178 179 180 173 175 186 181 182 181 178 179 171 174 178 184 164 168 168 169 172 180 189 190 225 188 200 208 197 192 175 182 188 184 169 173 176 189 195 237 289 340 328 324 306 306 317 269 216 210 214 209 214 209 213 193
239 253 270 296 307 207 205 202 198 184 167 186 192 197 181 199 199 195 193 197 192 178 180 179 177 183 183 181 182 183 174 176 177 175 182 178 179 179 188 168 180 186 182 180 170 175 166 176 176 179 185 187 204 196 183 177 194 206 211 183 202 190 200 200 165 171 175 207 227 246 299 340 335 337 351 282 291 249 218 215 213 212 209 204 216
250 220 208 207 181 215 221 203 195 181 171 183 182 191 189 186 178 175 188 185 168 179 181 178 183 187 176 178 180 182 177 178 175 176 178 175 179 182 178 179 192 182 183 170 171 168 172 177 178 181 187 183 198 195 200 168 190 207 201 208 198 198 207 199 185 179 195 199 216 228 257 307 353 22 17 17 75 16 20 312 225 207 207 207 212
329 305 264 175 178 187 193 201 178 174 185 189 184 175 165 165 164 178 174 160 167 168 177 183 184 183 176 178 184 181 180 177 183 178 178 178 179 181 185 193 188 180 179 168 163 159 154 162 185 165 173 181 185 206 195 187 185 213 204 218 194 216 218 195 203 189 196 202 209 205 207 242 340 22 33 27 21 30 38 17 316 207 211 213 210
347 359 18 16 351 28 174 157 171 178 190 173 152 157 152 144 144 151 154 154 163 168 182 182 176 175 176 181 182 184 182 180 174 180 176 176 182 189 188 193 189 179 168 159 170 166 168 170 188 166 193 187 197 200 184 201 217 207 207 209 199 212 205 210 200 201 195 203 203 198 199 198 198 137 21 30 31 24 68 41 14 261 212 224 219
14 22 27 15 34 20 52 82 102 121 126 126 127 125 120 124 131 135 143 153 156 164 169 170 172 180 175 182 183 182 184 179 180 174 181 177 180 192 198 198 177 170 174 178 168 173 171 185 168 186 190 210 206 204 199 203 196 206 210 197 208 214 211 211 209 207 199 205 188 207 206 196 196 174 139 73 28 23 31 71 90 152 215 223 221
22 21 29 34 41 32 33 55 47 75 78 78 87 107 112 117 123 131 131 137 142 152 162 173 171 162 173 180 184 181 182 180 177 173 177 184 185 192 202 179 175 168 179 174 168 179 182 181 189 172 177 218 208 226 216 208 207 209 211 203 218 205 210 218 214 215 215 184 198 206 211 211 198 192 191 175 150 23 63 58 88 79 61 14 216
24 28 28 33 36 29 36 40 36 44 57 62 71 65 68 72 82 97 117 123 133 138 141 136 140 161 174 178 181 179 181 176 176 179 176 184 190 194 189 181 167 173 176 182 188 184 174 180 190 201 186 191 202 221 225 219 211 218 211 215 225 213 217 218 219 218 194 196 207 212 213 218 212 207 192 195 178 120 70 74 66 69 45 26 9
29 30 33 38 36 33 35 35 37 45 51 51 53 62 67 71 65 63 57 56 51 55 69 101 126 151 160 176 176 174 176 174 173 175 181 184 189 187 170 168 166 171 177 179 199 173 178 174 192 207 199 182 201 206 219 228 228 220 228 229 240 236 239 237 240 231 206 219 221 212 211 211 208 214 206 202 199 189 167 131 112 80 62 10 345
29 31 35 35 36 31 33 32 31 29 40 46 48 53 53 61 65 61 60 55 54 54 57 56 40 43 50 89 127 147 159 154 160 162 171 175 178 176 171 176 169 168 167 179 176 168 176 196 195 205 212 217 198 210 199 183 219 234 238 251 276 254 259 256 251 244 230 224 217 220 210 223 213 211 210 210 213 204 195 194 160 169 217 234 262
33 32 36 35 33 32 33 36 28 21 33 41 40 46 52 45 42 35 44 35 49 60 52 62 61 61 49 44 42 54 87 138 145 146 155 168 178 188 186 164 167 158 167 174 184 178 191 195 215 190 199 225 74 169 133 140 77 89 287 299 263 258 268 251 249 242 238 234 232 211 211 222 212 208 212 214 209 213 210 209 203 208 214 237 247
33 33 37 34 33 30 36 34 21 27 34 35 35 35 34 27 40 45 52 21 28 44 50 40 53 64 81 82 76 63 59 50 49 78 153 154 190 120 139 161 160 174 181 199 194 197 197 193 184 176 184 203 244 157 160 132 135 259 349 317 300 280 272 271 252 246 240 237 231 220 222 208 216 207 214 205 208 214 216 216 217 214 218 222 241
26 33 38 36 34 32 37 32 25 29 30 26 34 46 29 55 87 73 78 39 39 39 32 24 32 45 39 36 46 68 95 110 113 114 99 136 162 152 187 196 176 201 210 198 180 189 172 173 152 192 214 195 223 180 180 127 232 208 200 290 307 289 262 264 254 245 232 235 226 224 218 211 216 214 210 201 214 213 217 219 219 221 224 222 228
34 36 34 38 33 34 34 36 33 32 27 23 28 28 23 20 42 30 47 71 50 59 74 54 40 49 40 34 37 29 22 18 29 36 45 79 126 164 222 160 202 197 192 207 185 197 195 192 181 191 212 256 246 197 185 199 193 117 113 50 277 280 306 266 253 239 221 224 226 228 220 219 220 208 201 202 217 218 221 217 220 219 223 223 224
30 29 29 34 36 34 33 36 36 35 31 24 28 21 38 47 48 53 46 62 42 14 27 24 18 21 21 34 45 35 38 36 24 28 22 23 32 339 23 164 211 186 216 220 202 216 201 197 198 217 175 213 225 240 193 208 149 133 264 214 237 160 306 257 237 241 199 218 215 226 218 223 221 220 204 215 215 216 221 209 217 217 219 219 220
30 27 23 27 36 36 34 38 40 39 35 29 29 28 33 33 28 40 43 36 28 27 25 12 9 7 7 10 353 15 46 46 37 39 36 20 22 24 11 2 303 229 212 236 227 224 216 216 207 203 196 203 229 232 229 205 221 224 175 88 344 287 235 260 9 280 205 213 228 223 222 220 217 214 213 228 218 216 213 215 218 218 220 216 219
33 22 20 27 31 33 36 37 39 37 35 31 32 43 45 47 43 43 38 39 40 28 25 9 6 15 356 338 -0 6 4 21 33 32 41 37 18 29 29 3 331 324 218 254 286 303 258 232 216 212 217 226 223 215 244 235 225 235 235 217 145 184 254 277 51 280 321 241 254 227 226 225 218 215 222 228 222 221 209 219 212 219 215 215 217
22 14 29 31 34 37 37 39 39 35 31 36 36 45 52 52 60 66 65 59 60 29 13 21 25 13 28 24 13 14 15 6 355 5 6 12 16 19 36 39 350 297 301 279 271 254 254 245 248 224 230 229 223 235 224 235 245 254 250 253 259 188 149 43 267 335 314 317 250 231 240 233 229 229 229 230 227 222 222 216 217 215 214 215 215
19 25 32 30 34 34 40 40 41 38 31 30 41 39 55 51 62 66 63 61 59 43 23 19 25 23 33 23 21 19 20 23 18 10 7 1 354 350 8 14 1 317 166 224 252 271 289 286 252 249 255 245 226 234 243 226 215 238 217 243 254 251 194 182 174 244 265 295 303 318 281 244 240 240 236 235 225 221 223 218 219 213 215 217 214
27 35 34 30 32 35 41 46 43 38 31 32 39 39 44 42 50 56 65 55 61 52 41 39 35 23 37 21 23 17 18 21 25 23 20 14 8 357 347 343 345 346 45 294 289 301 278 278 283 265 241 240 224 232 238 242 226 241 246 251 243 250 255 243 227 165 254 292 277 244 268 300 236 249 244 235 235 227 222 218 211 213 213 217 210
25 34 38 39 36 38 42 46 41 37 32 36 40 42 39 38 47 43 53 46 40 42 46 41 36 28 39 28 23 21 12 16 14 19 18 12 11 7 1 350 341 336 348 302 296 306 294 279 269 263 263 259 251 237 235 246 241 246 229 247 241 263 266 275 258 256 256 206 256 272 235 234 247 244 232 234 230 228 225 220 215 216 218 216 210
28 37 38 38 37 38 39 47 40 39 36 39 42 43 41 39 45 46 49 46 39 43 44 38 30 33 34 28 26 19 23 20 14 14 19 10 6 9 8 357 348 343 333 337 323 306 298 291 287 287 273 257 261 255 254 255 257 256 248 234 240 225 237 234 240 236 239 257 272 267 264 229 235 269 257 244 239 232 224 218 220 221 219 219 214